Orbital Elements at Epoch 2459000.5 (2020-May-31.0) TDB
Reference: JPL 23 (heliocentric ecliptic J2000)
Element | Value | Uncertainty (1-sigma) | Units |
e | .1948314080472928 | 3.2041e-08 | |
a | 2.538764548932741 | 1.266e-08 | au |
q | 2.044133477163625 | 7.7956e-08 | au |
i | 15.31792194490592 | 5.4849e-06 | deg |
node | 98.48675036757233 | 2.4673e-05 | deg |
peri | 227.5044053277691 | 3.2902e-05 | deg |
M | 103.4093116061868 | 2.2279e-05 | deg |
tp | 2458576.086479227097 (2019-Apr-02.58647923) | 9.1132e-05 | TDB |
period | 1477.515565137017 4.05 | 1.1052e-05 3.026e-08 | d yr |
n | .2436522555121885 | 1.8226e-09 | deg/d |
Q | 3.033395620701857 | 1.5127e-08 | au |
|
| | Orbit Determination Parameters
Additional Information
|